Retour au catalogue

ELEKTRO-L 2

ActifMétéoGEO
NORAD 41105·PAYLOAD·🇷🇺 Russia

Lancé Dec 11, 2015 depuis Baikonur Cosmodrome

Loading…

TLE

FraisSource: Space-Track

Époque: Sep 14, 2026, 06:53 UTC

1 41105U 15074A   26257.28712436 -.00000124  00000-0  00000-0 0  9991
2 41105   6.9127  69.3943 0001700 197.6664 175.0556  1.00272195 39401

Suivez ELEKTRO-L 2 en temps réel avec AllMySat

Download on the App Store